Regional Weather Roundup
Issued by NWS

Home | Current Version | Previous Version | Graphics & Text | Print | Product List | Glossary On
Versions: 1 2 3 4 5 6 7 8 9 10 11 12 13 14 15 16 17 18 19 20 21 22 23 24 25 26 27 28 29 30 31 32 33 34 35 36 37 38 39 40 41 42 43 44 45 46 47 48 49 50
503
ASUS43 KBIS 250102
RWRND

NORTH DAKOTA REGIONAL WEATHER ROUNDUP
NATIONAL WEATHER SERVICE BISMARCK ND
800 PM CDT SUN SEP 24 2017

NOTE: "FAIR" INDICATES FEW OR NO CLOUDS BELOW 12,000 FEET WITH NO
SIGNIFICANT WEATHER AND/OR OBSTRUCTIONS TO VISIBILITY.


NDZ001>003-009>011-017-250200-
NORTHWEST NORTH DAKOTA

CITY           SKY/WX    TMP DP  RH WIND       PRES   REMARKS
WILLISTON      MOCLDY    47  43  86 W3        30.12R
MINOT          CLOUDY    49  45  86 NW10      30.08R
MINOT AFB      CLOUDY    48  45  89 NW8       30.06S
$$

NDZ018>021-031>035-040>046-250200-
SOUTHWEST NORTH DAKOTA

CITY           SKY/WX    TMP DP  RH WIND       PRES   REMARKS
BISMARCK       CLOUDY    51  46  83 NW9       30.08R
DICKINSON      CLOUDY    45  41  86 NW6       30.09S
GARRISON         N/A     47  44  90 NW7       30.08R
HETTINGER ARPT CLOUDY    45  41  86 N7        30.11S
$$

NDZ004>008-012>016-024-026-027-054-250200-
NORTHEAST NORTH DAKOTA

CITY           SKY/WX    TMP DP  RH WIND       PRES   REMARKS
GRAND FORKS    CLOUDY    52  50  93 NW13G22   29.95R
GRND FRKS AFB  CLOUDY    52  50  93 N14       29.98R
DEVILS LAKE    CLOUDY    48  46  93 NW12      30.03R
$$

NDZ022-023-025-028>030-036>039-047>053-250200-
SOUTHEAST NORTH DAKOTA

CITY           SKY/WX    TMP DP  RH WIND       PRES   REMARKS
FARGO          CLOUDY    53  51  93 NW15      29.95R
JAMESTOWN      CLOUDY    50  47  89 NW14      30.02R
$$





USA.gov is the U.S. government's official web portal to all federal, state and local government web resources and services.